Minneapolis Flying Cloud, MN

3:23 AM CDT on October 17, 2019 (GMT -0500)
Flying Cloud

Weather History for KFCM - August, 2019

Change the Weather History Date:

Thursday, August 1, 2019

  Actual Average Record
Temperature  
Mean Temperature 74 °F -  
Max Temperature 84 °F 80 °F 93 °F (2012)
Min Temperature 63 °F 61 °F 55 °F (2013)
Cooling Degree Days 8    
Growing Degree Days 24 (Base 50)    
Moisture  
Dew Point 60 °F    
Average Humidity 63    
Maximum Humidity 87    
Minimum Humidity 38    
Precipitation  
Precipitation 0.00 in - - ()
Sea Level Pressure  
Sea Level Pressure 30.14 in    
Wind  
Wind Speed 3 mph (SSW)    
Max Wind Speed 12 mph    
Max Gust Speed -    
Visibility 10 miles    
Events      
Averages and records for this station are not official NWS values.
T = Trace of Precipitation, MM = Missing Value Source: NWS Daily Summary

Daily Weather History Graph

Daily Weather History Graph

Search for Another Location

Airport or City:

Astronomy

Aug. 01, 2019 Rise Set
Actual Time 5:59 AM CDT 8:40 PM CDT
Civil Twilight 5:25 AM CDT 9:13 PM CDT
Nautical Twilight 4:43 AM CDT 9:55 PM CDT
Astronomical Twilight 3:54 AM CDT 10:44 PM CDT
Moon 6:24 AM CDT (8/1) 9:26 PM CDT (8/1)
Length of Visible Light 15h 47m
Length of Day
14h 40m
New Moon, 1% of the Moon is Illuminated
Aug 1
New Moon
Aug 7
First Quarter
Aug 15
Full
Aug 23
Last Quarter
Aug 30
New

Hourly Weather History & Observations

Time (CDT) Temp. Heat Index Dew Point Humidity Pressure Visibility Wind Dir Wind Speed Gust Speed Precip Events Conditions
12:53 AM 64.9 °F - 59.0 °F 81% 30.13 in 10.0 mi Calm Calm - N/A   Clear
1:53 AM 64.9 °F - 60.1 °F 84% 30.13 in 10.0 mi Calm Calm - N/A   Clear
2:53 AM 64.9 °F - 61.0 °F 87% 30.14 in 10.0 mi Calm Calm - N/A   Clear
4:53 AM 64.0 °F - 59.0 °F 84% 30.14 in 10.0 mi South 4.6 mph - N/A   Clear
5:53 AM 63.0 °F - 57.9 °F 84% 30.14 in 10.0 mi South 4.6 mph - N/A   Clear
6:53 AM 64.0 °F - 59.0 °F 84% 30.16 in 10.0 mi Calm Calm - N/A   Clear
7:53 AM 66.9 °F - 61.0 °F 81% 30.18 in 10.0 mi SSW 3.5 mph - N/A   Clear
8:53 AM 70.0 °F - 62.1 °F 76% 30.19 in 9.0 mi Calm Calm - N/A   Clear
9:53 AM 73.9 °F - 63.0 °F 68% 30.19 in 10.0 mi Variable 3.5 mph - N/A   Clear
10:53 AM 77.0 °F - 63.0 °F 62% 30.19 in 10.0 mi Variable 6.9 mph - N/A   Partly Cloudy
11:53 AM 79.0 °F - 63.0 °F 58% 30.17 in 10.0 mi South 9.2 mph - N/A   Clear
12:53 PM 80.1 °F 81.2 °F 62.1 °F 54% 30.17 in 10.0 mi Variable 6.9 mph - N/A   Clear
1:53 PM 82.9 °F 82.8 °F 59.0 °F 44% 30.16 in 10.0 mi South 11.5 mph - N/A   Clear
2:53 PM 84.0 °F 83.5 °F 57.9 °F 41% 30.14 in 10.0 mi SSW 8.1 mph - N/A   Clear
3:53 PM 84.0 °F 83.0 °F 55.9 °F 38% 30.13 in 10.0 mi SW 6.9 mph - N/A   Clear
4:53 PM 84.0 °F 83.3 °F 57.0 °F 40% 30.12 in 10.0 mi South 6.9 mph - N/A   Clear
5:53 PM 82.9 °F 82.4 °F 57.0 °F 41% 30.12 in 10.0 mi SSW 8.1 mph - N/A   Clear
6:53 PM 80.1 °F 80.7 °F 59.0 °F 48% 30.12 in 10.0 mi South 6.9 mph - N/A   Clear
7:53 PM 79.0 °F - 57.9 °F 48% 30.12 in 10.0 mi South 3.5 mph - N/A   Clear
8:53 PM 77.0 °F - 57.9 °F 52% 30.12 in 10.0 mi Calm Calm - N/A   Clear
9:53 PM 73.9 °F - 60.1 °F 62% 30.12 in 10.0 mi SSW 4.6 mph - N/A   Clear
10:53 PM 72.0 °F - 61.0 °F 68% 30.12 in 10.0 mi South 4.6 mph - N/A   Clear
11:53 PM 71.1 °F - 62.1 °F 73% 30.13 in 10.0 mi South 3.5 mph - N/A   Clear